Location: *
(52.2090°N, 4.1550°W)
Time: 13:03:04
(UTC+00:00)

USA 238 DEB - Pass Details

Date: 19 July 2019
Orbit: 1036 x 1177 km, 63.4° (Epoch: 12 August)

Event Time Altitude Azimuth Distance (km) Brightness Sun altitude
Rises 23:24:18 0° 310° (NW) 3,907 7.6 -15.9°
Reaches altitude 10° 23:26:59 10° 314° (NW) 2,969 6.9 -16.0°
Maximum altitude 23:33:59 59° 34° (NE) 1,289 4.3 -16.3°
Drops below altitude 10° 23:41:12 10° 114° (ESE) 3,056 5.8 -16.5°
Enters shadow 23:43:09 - 117° (ESE) 3,730 6.2 -16.5°
